{"data":{"norad_id":52676,"intl_designator":"2022-053W","name":"STARLINK-4006","alt_names":[],"object_type":"PAYLOAD","status":"ACTIVE","operator":null,"country":"US","launch_date":"2022-05-18","launch_site_code":"AFETR","launch_vehicle":null,"mission":null,"orbit_class":"UNKNOWN","rcs_meters":null,"size_class":null,"mass_kg":null,"dimensions":null,"purposes":["comms"],"wikipedia_slug":null,"has_3d_model":false,"image_url":null,"decayed_at":null,"tle_current":{"epoch":"2026-05-25T01:56:16.801728Z","epoch_age_seconds":61370,"freshness":"FRESH","line1":"1 52676U 22053W   26145.08075002 -.00000601  00000+0 -19680-4 0  9994","line2":"2 52676  53.2145 171.1875 0001064  79.4793 280.6319 15.08838268222574","mean_motion":15.08838268,"eccentricity":0.0001064,"inclination_deg":53.2145,"raan_deg":171.1875,"arg_perigee_deg":79.4793,"mean_anomaly_deg":280.6319,"bstar":-1.968e-5,"rev_number":22257,"period_min":95.437664230823,"perigee_km":539.0126199636,"apogee_km":540.48474603694,"semimajor_km":6917.8856830003,"source":"CELESTRAK","updated_at":"2026-05-25T13:38:17.233660Z"}}}